Weather Roundup
Issued by NWS Chicago, IL

Home | Current Version | Previous Version | Graphics & Text | Print | Product List | Glossary On
Versions: 1 2 3 4 5 6 7 8 9 10 11 12 13 14 15 16 17 18 19 20 21 22 23 24 25 26 27 28 29 30 31 32 33 34 35 36 37 38 39 40 41 42 43 44 45 46 47 48 49 50
000
NZUS59 KLOT 291221
HRRLOT

CHICAGO AREA WEATHER ROUNDUP
NATIONAL WEATHER SERVICE CHICAGO/ROMEOVILLE IL
700 AM CDT SAT AUG 29 2015

NOTE: "FAIR" INDICATES FEW OR NO CLOUDS BELOW 12,000 FEET WITH NO
SIGNIFICANT WEATHER AND/OR OBSTRUCTIONS TO VISIBILITY.

* THESE STATIONS ARE NOT UNDER NWS QUALITY CONTROL. THEY ALSO MAY NOT
  REPORT WEATHER SUCH AS PRECIPITATION OR FOG.

ILZ005-006-012>014-019>023-291300-
NORTHEAST ILLINOIS

CITY           SKY/WX    TMP DP  RH WIND       PRES   REMARKS
OHARE          LGT RAIN  63  62  97 SE6       30.04R FOG
6HR MIN TEMP:  63; 6HR MAX TEMP:  69; 6HR PCP:  0.49;

MIDWAY         LGT RAIN  66  61  84 SE8       30.04S
6HR MIN TEMP:  66; 6HR MAX TEMP:  72; 6HR PCP:  0.22;

AURORA         CLOUDY    64  62  93 SE8       30.02F
6HR MIN TEMP:  64; 6HR MAX TEMP:  66; 6HR PCP:  0.35;

LANSING*       LGT RAIN  64  59  83 E3        30.06R
JOLIET*        LGT RAIN  65  63  93 SE7       30.02F
WAUKEGAN       HVY RAIN  62  61  96 CALM      30.07R FOG
6HR MIN TEMP:  62; 6HR MAX TEMP:  65; 6HR PCP:  0.20;

DUPAGE AIRPORT LGT RAIN  64  61  90 SE10      30.01F FOG
6HR MIN TEMP:  63; 6HR MAX TEMP:  68; 6HR PCP:  0.59;

WHEELING       LGT RAIN  64  61  90 E5        30.06R FOG
6HR MIN TEMP:  63; 6HR MAX TEMP:  68; 6HR PCP:  0.37;

KANKAKEE*      CLOUDY    64  62  94 CALM      30.06R
MORRIS*        CLOUDY    64  62  92 SE7       30.00F
LEWIS AIRPORT* RAIN      63  61  94 SE7       30.04S
NORTHERLY IS     N/A     63  60  90 S3          N/A
$$

WIZ051-052-058>065-066-070>072-291300-
SOUTHEAST WISCONSIN

CITY           SKY/WX    TMP DP  RH WIND       PRES   REMARKS
MILWAUKEE      RAIN      57  56  96 NE5       30.07R FOG
6HR MIN TEMP:  57; 6HR MAX TEMP:  64; 6HR PCP:  0.68;

KENOSHA*       TSTM      63  61  93 S5        30.07R FOG
RACINE*        RAIN      62  59  90 NE7       30.08S FOG
BURLINGTON     RAIN      61  60  97 SE5       30.05S
WAUKESHA       DRIZZLE   57  57 100 E3        30.07R
WEST BEND      DRIZZLE   57  55  94 E8        30.07S
$$

INZ001>003-010>013-019-020-291300-
NORTHWEST INDIANA

CITY           SKY/WX    TMP DP  RH WIND       PRES   REMARKS
GARY*          CLOUDY    66  59  77 SE6       30.06R
MICHIGAN CITY* NOT AVBL
RENSSELAER*    NOT AVBL
VALPARAISO     CLOUDY    62  59  90 E5        30.08R
$$

LMZ740>746-291300-
SOUTHERN LAKE MICHIGAN

STATION/POSITION TIME  SKY/WX   TEMP WIND        PRES    VSBY
                                AIR  DIR/SP/G
                 (UTC)          (F)  (DEG/KT/KT) (MB)    (MI)
HARRISON CRIB    1200            65  140/ 10/ 11   N/A
BURNHAM HARBOR   1200            63  130/  3/  6   N/A
CALUMET HARBOR   NOT AVBL
BURNS HARBOR     1100            68  160/ 11/ 14 1017.9S
MICHIGAN CITY    1200            66  130/ 10/ 12   N/A
$$

ABBREVIATIONS USED IN REMARKS
   TC - TEMPERATURE IN CELSIUS
  WCI - WIND CHILL INDEX
   HX - HEAT INDEX
  VSB - VISIBILITY
$$



USA.gov is the U.S. government's official web portal to all federal, state and local government web resources and services.